Location: Ceske Budejovice
(48.9830°N, 14.4670°E)
Time: 08:59:32
(UTC+02:00)

ISS - Pass Details

Date: 28 March 2019
Orbit: 408 x 410 km, 51.6° (Epoch: 24 April)

Event Time Altitude Azimuth Distance (km) Brightness Sun altitude
Rises 20:55:13 0° 283° (WNW) 2,337 1.2 -23.4°
Reaches altitude 10° 20:57:21 10° 288° (WNW) 1,475 0.0 -23.7°
Enters shadow 20:59:38 38° 311° (NW) 645 -2.3 -24.0°
